* Astronomy

Members Login
Username 
 
Password 
    Remember Me  
Post Info TOPIC: Asteroid 2012 US136


L

Posts: 131433
Date:
Asteroid 2012 US136
Permalink  
 


Orbital elements:
2012 US136                                               Earth MOID = 0.0850 AU
Epoch 2012 Sept. 30.0 TT = JDT 2456200.5                MPC
M   1.14168              (2000.0)            P               Q
n   0.10270219     Peri.  279.35556     +0.16735650     +0.98587690
a   4.5159548      Node     0.45196     -0.24827211     +0.04823810
e   0.9160122      Incl.   51.91573     -0.95412408     +0.16037404
P   9.60           H   15.9           G   0.15           U   5

MPEC 2012 - U84

Ed ~ 2000-4000 metres



__________________
Page 1 of 1  sorted by
 
Quick Reply

Please log in to post quick replies.



Create your own FREE Forum
Report Abuse
Powered by ActiveBoard